QPF
0.02 0.02 0.02 0.03 0.04 0.05 0.06 0.06 0.05 0.03 0.02 0.02 0.02 0.03 0.02 0.01 0.02 0.04 0.03 0.04 0.03 0.02 0.03 0.04 0.04 0.04 0.04 0.05 0.05 0.05 0.05 0.03 0.03 0.05 0.05 0.05 0.04 0.04 0.03 0.02 0.02 0.02 0.02
0.02 0.02 0.02 0.02 0.03 0.03 0.04 0.05 0.04 0.03 0.02 0.02 0.01 0.02 0.01 0.00 0.01 0.03 0.04 0.06 0.04 0.02 0.02 0.03 0.04 0.04 0.05 0.05 0.05 0.06 0.05 0.03 0.04 0.05 0.05 0.04 0.03 0.03 0.03 0.03 0.02 0.02 0.02
0.02 0.02 0.02 0.01 0.01 0.02 0.02 0.03 0.03 0.03 0.02 0.01 0.01 0.01 0.01 0.00 0.01 0.02 0.04 0.05 0.04 0.03 0.02 0.02 0.03 0.03 0.03 0.04 0.05 0.06 0.05 0.04 0.05 0.05 0.07 0.05 0.04 0.05 0.05 0.03 0.02 0.01 0.02
0.02 0.02 0.02 0.02 0.01 0.01 0.02 0.03 0.02 0.02 0.02 0.02 0.02 0.02 0.02 0.01 0.01 0.02 0.02 0.02 0.02 0.02 0.02 0.01 0.01 0.03 0.03 0.03 0.05 0.07 0.09 0.09 0.07 0.07 0.07 0.08 0.08 0.06 0.04 0.03 0.02 0.02 0.02
0.02 0.02 0.01 0.01 0.01 0.01 0.01 0.02 0.02 0.02 0.02 0.03 0.04 0.03 0.02 0.01 0.01 0.01 0.01 0.01 0.01 0.02 0.01 0.01 0.01 0.02 0.02 0.04 0.06 0.06 0.08 0.09 0.10 0.10 0.09 0.09 0.09 0.08 0.05 0.02 0.01 0.02 0.03
0.01 0.01 0.01 0.01 0.01 0.01 0.01 0.02 0.02 0.03 0.04 0.04 0.03 0.02 0.01 0.00 0.00 0.00 0.00 0.00 0.00 0.01 0.01 0.01 0.02 0.02 0.04 0.07 0.07 0.06 0.06 0.07 0.08 0.10 0.12 0.12 0.11 0.09 0.06 0.03 0.02 0.01 0.02
0.00 0.00 0.01 0.02 0.02 0.02 0.02 0.04 0.07 0.06 0.03 0.02 0.02 0.02 0.01 0.01 0.00 0.00 0.00 0.00 0.00 0.01 0.01 0.02 0.02 0.03 0.05 0.06 0.06 0.07 0.08 0.08 0.08 0.08 0.11 0.13 0.12 0.08 0.06 0.05 0.03 0.02 0.02
0.00 0.00 0.01 0.03 0.05 0.04 0.04 0.06 0.06 0.04 0.03 0.03 0.03 0.03 0.02 0.01 0.01 0.01 0.01 0.00 0.00 0.01 0.01 0.02 0.02 0.03 0.04 0.06 0.07 0.07 0.07 0.08 0.07 0.07 0.07 0.09 0.12 0.11 0.09 0.08 0.07 0.04 0.03
0.01 0.01 0.01 0.04 0.06 0.05 0.07 0.08 0.05 0.06 0.05 0.05 0.05 0.03 0.02 0.02 0.02 0.02 0.02 0.01 0.01 0.01 0.02 0.02 0.02 0.03 0.04 0.05 0.06 0.05 0.06 0.06 0.07 0.05 0.04 0.04 0.05 0.08 0.09 0.08 0.08 0.06 0.03
0.01 0.01 0.02 0.05 0.05 0.05 0.07 0.04 0.04 0.05 0.04 0.04 0.05 0.04 0.04 0.03 0.04 0.04 0.04 0.03 0.02 0.03 0.03 0.03 0.03 0.04 0.03 0.03 0.04 0.05 0.06 0.05 0.05 0.05 0.03 0.02 0.03 0.06 0.07 0.07 0.07 0.07 0.05
0.00 0.00 0.01 0.01 0.02 0.03 0.03 0.03 0.04 0.05 0.04 0.02 0.02 0.03 0.03 0.03 0.03 0.04 0.04 0.03 0.03 0.03 0.03 0.02 0.02 0.03 0.03 0.02 0.03 0.04 0.04 0.05 0.04 0.03 0.02 0.02 0.03 0.04 0.05 0.06 0.05 0.07 0.06
0.00 0.01 0.01 0.01 0.02 0.03 0.03 0.03 0.03 0.03 0.03 0.03 0.03 0.03 0.03 0.03 0.03 0.03 0.03 0.03 0.03 0.02 0.02 0.02 0.02 0.02 0.02 0.02 0.02 0.03 0.03 0.03 0.02 0.03 0.02 0.02 0.02 0.03 0.05 0.05 0.05 0.05 0.05
0.01 0.01 0.01 0.01 0.02 0.02 0.02 0.02 0.02 0.02 0.02 0.02 0.02 0.03 0.03 0.03 0.04 0.04 0.03 0.03 0.02 0.01 0.01 0.01 0.02 0.02 0.01 0.01 0.01 0.02 0.02 0.02 0.03 0.04 0.03 0.02 0.03 0.04 0.04 0.04 0.04 0.04 0.05
0.00 0.00 0.00 0.01 0.01 0.01 0.02 0.03 0.02 0.01 0.01 0.01 0.01 0.03 0.05 0.07 0.06 0.04 0.03 0.02 0.02 0.02 0.02 0.02 0.02 0.02 0.03 0.03 0.03 0.03 0.03 0.04 0.05 0.04 0.03 0.02 0.03 0.04 0.06 0.06 0.05 0.05 0.06
0.00 0.00 0.00 0.00 0.01 0.01 0.02 0.03 0.02 0.01 0.01 0.01 0.01 0.03 0.04 0.06 0.06 0.04 0.04 0.03 0.02 0.03 0.03 0.03 0.03 0.05 0.06 0.06 0.05 0.05 0.05 0.05 0.04 0.04 0.03 0.03 0.03 0.04 0.07 0.08 0.08 0.09 0.09
0.00 0.00 0.00 0.01 0.01 0.02 0.02 0.02 0.01 0.02 0.01 0.02 0.02 0.03 0.04 0.05 0.06 0.05 0.05 0.03 0.03 0.03 0.03 0.02 0.02 0.03 0.04 0.05 0.08 0.09 0.08 0.07 0.06 0.06 0.05 0.04 0.04 0.05 0.07 0.07 0.07 0.08 0.09
0.01 0.01 0.02 0.03 0.03 0.02 0.02 0.02 0.02 0.02 0.02 0.02 0.03 0.02 0.04 0.06 0.06 0.04 0.04 0.03 0.03 0.02 0.02 0.02 0.01 0.01 0.02 0.03 0.03 0.04 0.04 0.03 0.03 0.03 0.04 0.03 0.05 0.07 0.07 0.07 0.08 0.09 0.08
0.01 0.02 0.03 0.03 0.02 0.02 0.02 0.02 0.02 0.03 0.03 0.03 0.03 0.02 0.04 0.06 0.03 0.02 0.01 0.02 0.02 0.01 0.01 0.01 0.01 0.01 0.01 0.01 0.01 0.01 0.01 0.01 0.01 0.01 0.01 0.02 0.03 0.05 0.06 0.05 0.05 0.04 0.03
0.02 0.02 0.03 0.03 0.03 0.02 0.03 0.04 0.04 0.03 0.03 0.04 0.04 0.04 0.04 0.03 0.02 0.01 0.01 0.01 0.01 0.01 0.00 0.00 0.01 0.01 0.02 0.03 0.02 0.02 0.01 0.01 0.01 0.01 0.01 0.02 0.04 0.07 0.08 0.05 0.04 0.04 0.02
0.03 0.03 0.04 0.04 0.04 0.04 0.05 0.05 0.04 0.04 0.04 0.04 0.03 0.03 0.01 0.01 0.01 0.01 0.01 0.01 0.01 0.01 0.01 0.01 0.01 0.02 0.02 0.03 0.02 0.02 0.02 0.02 0.02 0.02 0.02 0.03 0.04 0.07 0.08 0.05 0.04 0.04 0.03
0.08 0.09 0.09 0.09 0.08 0.08 0.08 0.06 0.03 0.03 0.04 0.03 0.03 0.02 0.01 0.01 0.01 0.01 0.02 0.02 0.02 0.01 0.01 0.01 0.02 0.02 0.02 0.03 0.02 0.03 0.02 0.02 0.02 0.02 0.03 0.03 0.04 0.05 0.05 0.04 0.03 0.03 0.04
0.04 0.04 0.05 0.04 0.03 0.03 0.02 0.01 0.01 0.02 0.03 0.03 0.03 0.02 0.02 0.02 0.02 0.03 0.03 0.04 0.03 0.03 0.03 0.02 0.03 0.03 0.03 0.02 0.02 0.03 0.02 0.02 0.02 0.02 0.03 0.03 0.03 0.04 0.04 0.04 0.03 0.03 0.03
0.02 0.03 0.03 0.02 0.02 0.01 0.01 0.00 0.01 0.02 0.03 0.03 0.03 0.03 0.03 0.04 0.05 0.05 0.08 0.08 0.08 0.06 0.05 0.04 0.04 0.03 0.03 0.02 0.01 0.02 0.03 0.02 0.01 0.02 0.02 0.02 0.02 0.03 0.04 0.03 0.03 0.03 0.02
0.02 0.02 0.02 0.02 0.02 0.02 0.01 0.01 0.01 0.01 0.02 0.03 0.05 0.05 0.07 0.10 0.10 0.10 0.12 0.12 0.12 0.12 0.08 0.05 0.04 0.03 0.03 0.02 0.02 0.03 0.03 0.03 0.02 0.02 0.02 0.02 0.02 0.02 0.03 0.02 0.02 0.03 0.02
0.03 0.02 0.02 0.02 0.02 0.02 0.02 0.02 0.02 0.02 0.03 0.05 0.07 0.08 0.11 0.12 0.15 0.18 0.19 0.18 0.16 0.13 0.11 0.08 0.06 0.05 0.04 0.03 0.04 0.05 0.04 0.04 0.04 0.04 0.03 0.02 0.02 0.02 0.03 0.02 0.02 0.03 0.02
0.03 0.03 0.03 0.02 0.02 0.02 0.02 0.02 0.02 0.03 0.04 0.05 0.06 0.05 0.04 0.06 0.08 0.09 0.09 0.10 0.09 0.06 0.05 0.05 0.05 0.05 0.04 0.03 0.03 0.03 0.04 0.06 0.07 0.07 0.05 0.04 0.03 0.02 0.02 0.01 0.02 0.03 0.03
MSLP
1017.86 1017.58 1017.26 1016.92 1016.59 1016.27 1016.01 1015.81 1015.69 1015.66 1015.68 1015.75 1015.85 1015.94 1016.03 1016.10 1016.17 1016.24 1016.31 1016.40 1016.52 1016.65 1016.79 1016.94 1017.09 1017.24 1017.39 1017.53 1017.67 1017.79 1017.89 1017.94 1017.95 1017.88 1017.73 1017.51 1017.21 1016.85 1016.47 1016.07 1015.71 1015.38 1015.12
1018.17 1017.95 1017.69 1017.37 1017.02 1016.66 1016.33 1016.07 1015.90 1015.83 1015.85 1015.92 1016.02 1016.12 1016.18 1016.21 1016.19 1016.16 1016.14 1016.14 1016.17 1016.26 1016.39 1016.55 1016.72 1016.91 1017.08 1017.23 1017.35 1017.45 1017.52 1017.56 1017.56 1017.51 1017.41 1017.24 1017.01 1016.73 1016.41 1016.06 1015.73 1015.41 1015.14
1018.32 1018.21 1018.03 1017.77 1017.43 1017.05 1016.69 1016.38 1016.17 1016.08 1016.08 1016.16 1016.26 1016.35 1016.39 1016.37 1016.29 1016.17 1016.04 1015.95 1015.91 1015.93 1016.02 1016.17 1016.36 1016.54 1016.72 1016.86 1016.97 1017.05 1017.09 1017.11 1017.11 1017.08 1017.02 1016.92 1016.77 1016.57 1016.32 1016.04 1015.74 1015.45 1015.18
1018.32 1018.34 1018.27 1018.09 1017.80 1017.43 1017.05 1016.72 1016.48 1016.36 1016.35 1016.43 1016.53 1016.62 1016.65 1016.59 1016.45 1016.26 1016.06 1015.88 1015.76 1015.72 1015.77 1015.90 1016.06 1016.23 1016.39 1016.52 1016.60 1016.65 1016.67 1016.68 1016.68 1016.67 1016.66 1016.62 1016.54 1016.41 1016.23 1016.01 1015.75 1015.48 1015.21
1018.20 1018.35 1018.41 1018.33 1018.10 1017.77 1017.40 1017.04 1016.78 1016.63 1016.61 1016.68 1016.78 1016.87 1016.89 1016.82 1016.66 1016.43 1016.17 1015.93 1015.76 1015.67 1015.67 1015.76 1015.89 1016.04 1016.17 1016.27 1016.32 1016.34 1016.34 1016.34 1016.34 1016.35 1016.36 1016.36 1016.34 1016.27 1016.14 1015.96 1015.74 1015.48 1015.21
1018.00 1018.28 1018.47 1018.50 1018.35 1018.06 1017.70 1017.34 1017.05 1016.87 1016.82 1016.88 1016.98 1017.07 1017.11 1017.05 1016.88 1016.64 1016.36 1016.10 1015.89 1015.76 1015.73 1015.78 1015.87 1015.99 1016.09 1016.15 1016.17 1016.16 1016.14 1016.11 1016.11 1016.12 1016.15 1016.18 1016.19 1016.15 1016.05 1015.90 1015.68 1015.44 1015.18
1017.78 1018.18 1018.49 1018.61 1018.54 1018.30 1017.95 1017.58 1017.27 1017.06 1016.99 1017.02 1017.12 1017.23 1017.28 1017.24 1017.11 1016.89 1016.63 1016.37 1016.15 1016.00 1015.94 1015.96 1016.02 1016.09 1016.15 1016.18 1016.16 1016.12 1016.07 1016.02 1016.00 1016.01 1016.03 1016.06 1016.07 1016.04 1015.95 1015.80 1015.60 1015.35 1015.10
1017.60 1018.10 1018.49 1018.70 1018.69 1018.49 1018.16 1017.78 1017.45 1017.22 1017.12 1017.14 1017.23 1017.35 1017.42 1017.43 1017.34 1017.17 1016.94 1016.71 1016.51 1016.36 1016.28 1016.27 1016.29 1016.33 1016.35 1016.33 1016.28 1016.21 1016.12 1016.05 1016.01 1015.99 1015.99 1016.00 1015.99 1015.95 1015.85 1015.69 1015.49 1015.25 1015.01
1017.50 1018.06 1018.51 1018.78 1018.82 1018.65 1018.34 1017.97 1017.63 1017.38 1017.26 1017.26 1017.35 1017.47 1017.58 1017.62 1017.58 1017.47 1017.30 1017.11 1016.94 1016.80 1016.72 1016.69 1016.68 1016.67 1016.65 1016.59 1016.51 1016.40 1016.28 1016.18 1016.10 1016.05 1016.02 1016.00 1015.96 1015.88 1015.76 1015.59 1015.39 1015.17 1014.95
1017.47 1018.06 1018.55 1018.85 1018.92 1018.79 1018.50 1018.14 1017.81 1017.56 1017.43 1017.42 1017.50 1017.64 1017.76 1017.84 1017.85 1017.79 1017.68 1017.54 1017.40 1017.29 1017.21 1017.16 1017.12 1017.08 1017.02 1016.92 1016.80 1016.66 1016.51 1016.38 1016.27 1016.19 1016.12 1016.06 1015.98 1015.87 1015.73 1015.56 1015.36 1015.16 1014.96
1017.48 1018.07 1018.56 1018.88 1018.97 1018.87 1018.62 1018.31 1018.00 1017.77 1017.65 1017.64 1017.73 1017.86 1018.00 1018.10 1018.15 1018.13 1018.06 1017.96 1017.86 1017.77 1017.70 1017.64 1017.58 1017.51 1017.42 1017.29 1017.14 1016.97 1016.80 1016.64 1016.51 1016.39 1016.29 1016.20 1016.09 1015.96 1015.80 1015.62 1015.43 1015.25 1015.10
1017.47 1018.04 1018.51 1018.82 1018.94 1018.88 1018.69 1018.43 1018.18 1018.00 1017.91 1017.91 1018.00 1018.13 1018.27 1018.37 1018.43 1018.44 1018.41 1018.34 1018.27 1018.20 1018.14 1018.08 1018.01 1017.92 1017.80 1017.65 1017.48 1017.29 1017.11 1016.94 1016.78 1016.65 1016.53 1016.41 1016.28 1016.14 1015.97 1015.79 1015.62 1015.46 1015.34
1017.39 1017.91 1018.35 1018.65 1018.79 1018.78 1018.66 1018.49 1018.32 1018.20 1018.16 1018.19 1018.28 1018.40 1018.52 1018.62 1018.67 1018.69 1018.67 1018.63 1018.59 1018.54 1018.49 1018.43 1018.36 1018.26 1018.13 1017.97 1017.78 1017.59 1017.40 1017.23 1017.08 1016.94 1016.82 1016.69 1016.56 1016.40 1016.23 1016.06 1015.89 1015.75 1015.65
1017.19 1017.65 1018.04 1018.33 1018.49 1018.53 1018.50 1018.43 1018.37 1018.33 1018.35 1018.41 1018.51 1018.61 1018.71 1018.78 1018.82 1018.84 1018.82 1018.80 1018.77 1018.75 1018.72 1018.67 1018.60 1018.50 1018.37 1018.20 1018.01 1017.82 1017.64 1017.48 1017.34 1017.22 1017.10 1016.99 1016.86 1016.71 1016.54 1016.37 1016.20 1016.07 1015.97
1016.85 1017.24 1017.58 1017.85 1018.03 1018.15 1018.21 1018.25 1018.30 1018.36 1018.44 1018.54 1018.64 1018.73 1018.80 1018.84 1018.85 1018.85 1018.84 1018.83 1018.82 1018.81 1018.80 1018.77 1018.71 1018.61 1018.48 1018.31 1018.13 1017.95 1017.78 1017.63 1017.51 1017.42 1017.33 1017.23 1017.12 1016.98 1016.81 1016.64 1016.47 1016.32 1016.21
1016.38 1016.70 1016.99 1017.25 1017.46 1017.64 1017.81 1017.96 1018.11 1018.27 1018.41 1018.55 1018.65 1018.73 1018.76 1018.77 1018.76 1018.74 1018.73 1018.72 1018.73 1018.75 1018.75 1018.74 1018.68 1018.59 1018.45 1018.29 1018.11 1017.93 1017.77 1017.65 1017.56 1017.49 1017.43 1017.36 1017.26 1017.14 1016.98 1016.79 1016.61 1016.43 1016.29
1015.82 1016.07 1016.33 1016.58 1016.82 1017.07 1017.33 1017.59 1017.84 1018.08 1018.28 1018.44 1018.55 1018.61 1018.62 1018.60 1018.57 1018.54 1018.52 1018.53 1018.55 1018.58 1018.60 1018.59 1018.53 1018.43 1018.29 1018.11 1017.92 1017.75 1017.60 1017.49 1017.42 1017.38 1017.35 1017.31 1017.24 1017.13 1016.97 1016.78 1016.57 1016.37 1016.19
1015.22 1015.43 1015.66 1015.91 1016.19 1016.51 1016.84 1017.19 1017.52 1017.83 1018.08 1018.26 1018.37 1018.42 1018.41 1018.37 1018.32 1018.28 1018.27 1018.28 1018.31 1018.35 1018.37 1018.35 1018.28 1018.16 1017.99 1017.79 1017.59 1017.40 1017.25 1017.15 1017.10 1017.08 1017.08 1017.06 1017.01 1016.92 1016.77 1016.57 1016.34 1016.11 1015.89
1014.66 1014.84 1015.06 1015.32 1015.64 1016.00 1016.40 1016.82 1017.21 1017.56 1017.84 1018.04 1018.16 1018.19 1018.17 1018.12 1018.06 1018.02 1018.01 1018.03 1018.06 1018.09 1018.10 1018.06 1017.96 1017.80 1017.60 1017.36 1017.13 1016.92 1016.76 1016.65 1016.61 1016.61 1016.62 1016.63 1016.60 1016.53 1016.38 1016.18 1015.94 1015.69 1015.44
1014.17 1014.34 1014.57 1014.85 1015.20 1015.60 1016.05 1016.50 1016.93 1017.31 1017.61 1017.81 1017.92 1017.96 1017.93 1017.88 1017.82 1017.78 1017.78 1017.79 1017.81 1017.83 1017.81 1017.73 1017.58 1017.38 1017.12 1016.85 1016.57 1016.33 1016.15 1016.04 1016.00 1016.01 1016.04 1016.07 1016.06 1015.99 1015.86 1015.67 1015.43 1015.16 1014.89
1013.78 1013.96 1014.20 1014.50 1014.88 1015.31 1015.78 1016.25 1016.69 1017.07 1017.37 1017.57 1017.68 1017.71 1017.68 1017.64 1017.59 1017.55 1017.54 1017.55 1017.56 1017.54 1017.48 1017.35 1017.16 1016.90 1016.59 1016.27 1015.96 1015.69 1015.49 1015.37 1015.33 1015.34 1015.38 1015.42 1015.43 1015.38 1015.26 1015.08 1014.85 1014.58 1014.31
1013.48 1013.69 1013.95 1014.27 1014.66 1015.10 1015.56 1016.03 1016.46 1016.82 1017.10 1017.29 1017.39 1017.42 1017.40 1017.36 1017.32 1017.29 1017.28 1017.27 1017.25 1017.19 1017.09 1016.91 1016.66 1016.35 1016.00 1015.64 1015.30 1015.02 1014.81 1014.69 1014.64 1014.65 1014.70 1014.75 1014.77 1014.73 1014.63 1014.47 1014.24 1013.99 1013.73
1013.26 1013.50 1013.78 1014.11 1014.50 1014.92 1015.36 1015.80 1016.19 1016.52 1016.77 1016.94 1017.03 1017.06 1017.05 1017.02 1016.98 1016.95 1016.93 1016.90 1016.85 1016.75 1016.60 1016.37 1016.08 1015.73 1015.35 1014.98 1014.63 1014.34 1014.13 1014.01 1013.97 1013.99 1014.04 1014.09 1014.11 1014.08 1013.99 1013.84 1013.63 1013.40 1013.15
1013.09 1013.34 1013.64 1013.97 1014.33 1014.73 1015.13 1015.51 1015.85 1016.13 1016.35 1016.49 1016.57 1016.59 1016.59 1016.56 1016.53 1016.50 1016.46 1016.41 1016.32 1016.19 1015.99 1015.73 1015.41 1015.04 1014.65 1014.28 1013.94 1013.67 1013.47 1013.36 1013.33 1013.35 1013.39 1013.44 1013.46 1013.43 1013.34 1013.20 1013.00 1012.78 1012.56
1012.92 1013.19 1013.48 1013.79 1014.13 1014.48 1014.82 1015.14 1015.42 1015.65 1015.82 1015.93 1016.00 1016.02 1016.02 1016.00 1015.97 1015.93 1015.87 1015.79 1015.68 1015.51 1015.28 1014.99 1014.66 1014.29 1013.92 1013.56 1013.25 1013.01 1012.84 1012.75 1012.72 1012.73 1012.77 1012.80 1012.80 1012.76 1012.66 1012.52 1012.33 1012.12 1011.91
1012.71 1012.98 1013.27 1013.56 1013.86 1014.16 1014.44 1014.70 1014.92 1015.09 1015.22 1015.31 1015.36 1015.38 1015.38 1015.36 1015.33 1015.28 1015.21 1015.10 1014.95 1014.76 1014.51 1014.21 1013.87 1013.52 1013.18 1012.86 1012.59 1012.38 1012.23 1012.16 1012.13 1012.14 1012.15 1012.15 1012.13 1012.06 1011.94 1011.78 1011.60 1011.39 1011.19
Thickness
5785 5785 5784 5782 5779 5775 5772 5771 5767 5766 5764 5761 5758 5756 5755 5755 5755 5755 5754 5754 5753 5752 5751 5751 5751 5750 5749 5748 5748 5747 5745 5744 5744 5742 5740 5742 5744 5744 5744 5744 5743 5743 5743
5782 5782 5782 5780 5777 5774 5772 5768 5765 5764 5763 5761 5759 5757 5756 5755 5755 5754 5753 5752 5751 5751 5750 5749 5749 5748 5747 5746 5746 5745 5743 5742 5742 5739 5734 5731 5734 5738 5742 5741 5741 5741 5741
5783 5782 5781 5779 5776 5773 5771 5769 5766 5763 5762 5761 5758 5756 5754 5752 5751 5750 5750 5750 5750 5749 5749 5748 5747 5746 5745 5744 5743 5743 5741 5738 5739 5738 5734 5727 5725 5729 5734 5737 5738 5738 5737
5786 5783 5781 5778 5776 5774 5772 5769 5767 5764 5761 5759 5756 5753 5750 5747 5748 5748 5748 5748 5748 5747 5747 5746 5745 5744 5744 5742 5742 5741 5740 5738 5735 5735 5734 5732 5730 5725 5725 5730 5732 5734 5734
5788 5785 5783 5780 5777 5775 5771 5768 5765 5762 5760 5758 5755 5752 5749 5748 5747 5746 5745 5745 5745 5745 5745 5744 5743 5742 5741 5740 5739 5738 5737 5736 5734 5733 5731 5729 5728 5726 5723 5722 5725 5727 5729
5788 5786 5784 5780 5776 5773 5770 5766 5762 5759 5758 5756 5754 5751 5748 5746 5744 5743 5742 5741 5741 5741 5741 5741 5740 5739 5738 5737 5737 5736 5735 5734 5733 5732 5730 5728 5726 5723 5722 5720 5719 5720 5724
5787 5785 5782 5777 5773 5771 5768 5764 5761 5758 5756 5754 5752 5750 5748 5745 5743 5741 5740 5738 5737 5737 5738 5738 5737 5736 5735 5735 5734 5733 5732 5731 5730 5729 5728 5727 5726 5725 5722 5719 5716 5716 5718
5786 5784 5781 5777 5773 5770 5766 5763 5759 5756 5754 5751 5749 5748 5746 5744 5742 5740 5739 5737 5736 5735 5735 5734 5734 5733 5732 5731 5730 5729 5729 5728 5727 5727 5725 5724 5724 5723 5721 5719 5715 5711 5711
5784 5782 5779 5775 5771 5767 5764 5761 5757 5753 5751 5749 5746 5745 5743 5742 5740 5738 5736 5735 5734 5733 5732 5731 5730 5729 5728 5727 5726 5725 5725 5724 5723 5723 5722 5721 5720 5719 5719 5717 5715 5710 5705
5780 5779 5777 5774 5770 5766 5763 5759 5756 5751 5749 5747 5744 5743 5741 5739 5738 5736 5733 5732 5730 5729 5728 5726 5725 5724 5723 5722 5721 5721 5720 5719 5718 5718 5717 5716 5716 5715 5715 5714 5712 5710 5706
5777 5776 5774 5771 5768 5764 5760 5756 5753 5749 5746 5744 5741 5739 5737 5735 5733 5732 5730 5728 5726 5724 5723 5722 5721 5719 5718 5717 5716 5716 5715 5714 5714 5713 5713 5712 5711 5710 5709 5709 5707 5706 5703
5774 5772 5770 5767 5763 5759 5756 5753 5750 5746 5743 5741 5738 5736 5733 5731 5728 5727 5725 5723 5721 5720 5718 5717 5715 5714 5714 5713 5712 5711 5710 5709 5708 5708 5707 5706 5707 5705 5704 5703 5702 5701 5700
5768 5766 5763 5761 5758 5755 5752 5749 5746 5743 5740 5737 5734 5731 5728 5726 5724 5722 5720 5718 5716 5715 5713 5712 5710 5709 5708 5708 5707 5706 5705 5704 5704 5703 5702 5701 5701 5700 5699 5698 5697 5696 5695
5761 5759 5757 5755 5753 5751 5749 5746 5742 5739 5736 5732 5728 5725 5723 5722 5720 5718 5715 5713 5712 5710 5708 5706 5705 5704 5703 5703 5702 5701 5700 5699 5699 5698 5698 5697 5696 5696 5694 5693 5691 5690 5688
5754 5753 5751 5749 5748 5746 5743 5740 5737 5734 5731 5727 5723 5721 5719 5718 5716 5713 5710 5708 5707 5705 5703 5701 5699 5698 5698 5698 5696 5696 5695 5694 5693 5693 5693 5693 5692 5692 5690 5689 5686 5685 5682
5748 5748 5747 5745 5743 5741 5739 5736 5733 5730 5727 5722 5719 5717 5714 5712 5710 5708 5706 5703 5702 5700 5697 5695 5694 5693 5693 5692 5692 5690 5689 5688 5688 5687 5687 5687 5687 5686 5685 5683 5681 5680 5676
5743 5742 5741 5740 5739 5737 5735 5731 5728 5725 5722 5718 5715 5713 5710 5707 5705 5703 5700 5697 5695 5694 5691 5689 5688 5687 5687 5687 5686 5685 5684 5683 5682 5681 5680 5682 5682 5681 5679 5676 5675 5673 5672
5738 5737 5735 5734 5733 5731 5729 5727 5723 5719 5716 5713 5710 5708 5705 5702 5699 5697 5694 5691 5689 5687 5685 5683 5682 5682 5682 5681 5680 5679 5678 5677 5677 5676 5675 5675 5675 5674 5672 5670 5668 5666 5666
5732 5732 5730 5729 5727 5725 5723 5719 5716 5713 5711 5707 5705 5702 5700 5697 5694 5691 5689 5686 5684 5681 5679 5678 5677 5676 5676 5675 5675 5673 5671 5670 5670 5670 5670 5670 5669 5668 5667 5664 5662 5660 5660
5727 5727 5725 5723 5720 5719 5716 5711 5708 5706 5704 5702 5699 5697 5694 5691 5688 5685 5683 5681 5679 5676 5674 5673 5672 5671 5670 5669 5668 5667 5666 5664 5664 5663 5664 5664 5663 5662 5660 5658 5656 5654 5654
5720 5720 5718 5714 5713 5711 5708 5705 5702 5700 5699 5697 5693 5690 5688 5685 5683 5679 5677 5675 5672 5670 5668 5666 5666 5665 5664 5664 5662 5661 5659 5658 5657 5657 5656 5657 5656 5655 5653 5652 5650 5650 5649
5712 5712 5710 5708 5707 5705 5702 5699 5696 5695 5694 5691 5688 5685 5682 5679 5677 5673 5671 5669 5666 5663 5662 5660 5659 5659 5658 5658 5656 5655 5654 5653 5651 5650 5650 5649 5648 5647 5646 5645 5644 5643 5642
5705 5704 5702 5701 5699 5698 5696 5693 5692 5690 5687 5684 5682 5679 5676 5672 5670 5667 5663 5660 5658 5656 5655 5654 5653 5652 5652 5651 5650 5649 5647 5646 5644 5644 5643 5642 5641 5640 5638 5638 5638 5637 5636
5697 5696 5695 5693 5692 5691 5691 5689 5687 5684 5680 5677 5675 5672 5669 5666 5663 5661 5658 5656 5652 5650 5649 5648 5647 5646 5645 5645 5644 5642 5640 5638 5637 5636 5636 5635 5634 5632 5631 5631 5630 5629 5629
5690 5689 5687 5686 5686 5686 5684 5683 5681 5678 5673 5671 5668 5664 5662 5660 5658 5656 5653 5651 5649 5647 5645 5644 5642 5640 5639 5640 5638 5635 5634 5632 5631 5629 5628 5626 5625 5624 5624 5624 5623 5622 5622
5682 5681 5680 5680 5680 5679 5678 5677 5676 5673 5669 5665 5662 5659 5656 5654 5651 5649 5647 5646 5645 5644 5642 5640 5637 5636 5635 5634 5631 5629 5628 5626 5624 5622 5620 5618 5617 5617 5618 5617 5616 5616 5616